User: anonymous   Login
Location: Domont
(49.0278°N, 2.3264°E)
Time: 03:09:52
(UTC+00:00)
Language:

Cosmos 1125 Rocket - Orbit

View from above orbital plane
View from above orbital plane
View from above satellite
View from above satellite

Ground track
Ground track

The orbit data is extracted from the following two-line orbital elements,

1 11511U 79078B   22020.66425220  .00000096  00000-0  41156-4 0  9999
2 11511  74.0365 109.7790 0016777 301.3362  58.6149 14.36957568219699
Epoch (UTC): 20 January 2022 15:56:31
Eccentricity: 0.0016777
inclination: 74.0365°
perigee height: 756 km
apogee height: 780 km
right ascension of ascending node: 109.7790°
argument of perigee: 301.3362°
revolutions per day: 14.36957568
mean anomaly at epoch: 58.6149°
orbit number at epoch: 21969

The dashed part of the orbit path shows where the satellite is in the earth's shadow,  

DLR